Terug naar catalogus

SL-8 DEB

ActiefLEO
NORAD 15033·DEBRIS·🇷🇺 Russia

Gelanceerd Jun 8, 1984 vanaf Plesetsk Cosmodrome

Loading…

Volgende Passages (komende 24 uur)

TLE

VersSource: Space-Track

Epoch: Sep 14, 2026, 10:13 UTC

1 15033U 84056C   26257.42588116  .00000781  00000-0  20620-3 0  9991
2 15033  74.0653 261.3395 0010317  94.5580 336.2376 14.50545348215312

Volg SL-8 DEB in realtime met AllMySat

Download on the App Store